"Pseudo-MPEC" for ST26H83

Created 2026 Aug 26 0:35:11 UT using Find_Orb

Click here for an explanation of pseudo-MPECs

 
 Astrometry: 
     ST26H83* C2026 08 23.35897420 35 22.809+16 16 00.43   ~8OFo 19.05GVNEOCPU68
     ST26H83  C2026 08 23.36231620 35 05.283+16 20 30.33   ~8OFo 19.05GVNEOCPU68
     ST26H83  C2026 08 23.38725920 32 53.905+16 54 02.58   ~8OFo 19.07GVNEOCPU74
     ST26H83  C2026 08 23.38979920 32 40.548+16 57 25.15   ~8OFo 19.07GVNEOCPU74

Station data:
(U68) JPL SynTrack Robotic Telescope, Auberry  (N37.070387 W119.412990)
   US/California.  Observers N. Saini, C. Zhai, R. Trahan, M. Zhan, M. Shao.
   0.28-m f/2.2 Schmidt + CCD.
(U74) JPL SynTrack Robotic Telescope 2, Auberry  (N37.070341 W119.412800)
   US/California.  Observers N. Saini, C. Zhai, R. Trahan, M. Zhan, M. Shao.
   0.36-m f/2.2 Schmidt.

Orbital elements:  ST26H83
   Perihelion 2026 Oct 27.610002 +/- 55.3 TT = 14:38:24.2 (JD 2461341.110002)
Epoch 2026 Aug 23.0 TT = JDT 2461275.5   Earth MOID: 0.0238      AutoNEOCP
M 309.477913729 +/- 56              (J2000 ecliptic)
n   0.770036343 +/- 0.46            Peri.   88.466799 +/- 56
a   1.178859100 +/- 0.469           Node   328.787959 +/- 1.0
e   0.33411395 +/- 0.287            Incl.   42.532361 +/- 19
P   1.280/467.502d         H 25.85  G  0.15   U 12.2  SR
q 0.784985827 +/- 0.161    Q 1.572732374 +/- 22.8
From 4 observations 2026 Aug. 23 (44.4 min); mean residual 0".51
Residuals in arcseconds: 
260823 U68  .64-  .44+    260823 U74  .01-  .63+    
260823 U68  .72+  .55-    260823 U74  .07-  .52-    

Ephemerides (geocentric):
Date (UTC) HH   RA             Dec           delta  r     elong  mag " sig PA
---- --------  ------------   ------------  ------ ------ -----  --- --------
2026 08 26 01  17 34 03.374   +45 28 09.88  .04768 1.0162  95.4 22.1  20d  85
2026 08 26 02  17 32 16.767   +45 35 51.72  .04817 1.0160  95.1 22.2  20d  85
2026 08 26 03  17 30 31.812   +45 43 18.32  .04865 1.0158  94.7 22.2  20d  85
2026 08 26 04  17 28 48.482   +45 50 30.25  .04914 1.0155  94.4 22.2  20d  86
2026 08 26 05  17 27 06.753   +45 57 28.02  .04963 1.0153  94.0 22.3  20d  86
2026 08 26 06  17 25 26.597   +46 04 12.13  .05011 1.0151  93.7 22.3  20d  86
2026 08 26 07  17 23 47.988   +46 10 43.09  .05061 1.0148  93.4 22.3  20d  87
2026 08 26 08  17 22 10.901   +46 17 01.37  .05110 1.0146  93.1 22.4  20d  87
2026 08 26 09  17 20 35.309   +46 23 07.40  .05159 1.0144  92.8 22.4  20d  87
2026 08 26 10  17 19 01.188   +46 29 01.64  .05209 1.0141  92.5 22.4  20d  88
2026 08 26 11  17 17 28.513   +46 34 44.49  .05258 1.0139  92.2 22.5  20d  88
2026 08 26 12  17 15 57.257   +46 40 16.37  .05308 1.0137  91.9 22.5  20d  88
2026 08 26 13  17 14 27.397   +46 45 37.66  .05358 1.0134  91.6 22.5  21d  88
2026 08 26 14  17 12 58.908   +46 50 48.73  .05408 1.0132  91.3 22.5  21d  89
2026 08 26 15  17 11 31.766   +46 55 49.94  .05458 1.0130  91.0 22.6  21d  89
2026 08 26 16  17 10 05.946   +47 00 41.64  .05508 1.0127  90.8 22.6  21d  89
2026 08 26 17  17 08 41.426   +47 05 24.16  .05558 1.0125  90.5 22.6  21d  89
2026 08 26 18  17 07 18.183   +47 09 57.81  .05609 1.0123  90.2 22.7  21d  90
2026 08 26 19  17 05 56.192   +47 14 22.92  .05659 1.0120  90.0 22.7  21d  90
2026 08 26 20  17 04 35.432   +47 18 39.76  .05710 1.0118  89.7 22.7  21d  90
2026 08 26 21  17 03 15.881   +47 22 48.63  .05760 1.0116  89.5 22.7  21d  90
2026 08 26 22  17 01 57.516   +47 26 49.79  .05811 1.0113  89.2 22.8  21d  90
2026 08 26 23  17 00 40.316   +47 30 43.53  .05862 1.0111  89.0 22.8  21d  91
2026 08 27 00  16 59 24.259   +47 34 30.07  .05913 1.0109  88.8 22.8  21d  91
2026 08 27 01  16 58 09.326   +47 38 09.68  .05964 1.0106  88.5 22.9  21d  91
2026 08 27 02  16 56 55.494   +47 41 42.58  .06015 1.0104  88.3 22.9  21d  91
2026 08 27 03  16 55 42.745   +47 45 09.00  .06066 1.0102  88.1 22.9  21d  91
2026 08 27 04  16 54 31.058   +47 48 29.17  .06117 1.0100  87.9 22.9  21d  92
2026 08 27 05  16 53 20.413   +47 51 43.28  .06169 1.0097  87.6 23.0  21d  92
2026 08 27 06  16 52 10.793   +47 54 51.54  .06220 1.0095  87.4 23.0  21d  92
2026 08 27 07  16 51 02.177   +47 57 54.14  .06272 1.0093  87.2 23.0  21d  92
2026 08 27 08  16 49 54.547   +48 00 51.28  .06323 1.0090  87.0 23.0  21d  92
2026 08 27 09  16 48 47.886   +48 03 43.12  .06375 1.0088  86.8 23.1  21d  93
2026 08 27 10  16 47 42.175   +48 06 29.85  .06427 1.0086  86.6 23.1  21d  93
2026 08 27 11  16 46 37.397   +48 09 11.63  .06478 1.0083  86.4 23.1  21d  93
2026 08 27 12  16 45 33.534   +48 11 48.63  .06530 1.0081  86.2 23.1  21d  93
2026 08 27 13  16 44 30.571   +48 14 20.99  .06582 1.0079  86.0 23.2  21d  93
2026 08 27 14  16 43 28.491   +48 16 48.88  .06634 1.0076  85.8 23.2  21d  93
2026 08 27 15  16 42 27.276   +48 19 12.42  .06686 1.0074  85.6 23.2  21d  93
2026 08 27 16  16 41 26.913   +48 21 31.76  .06738 1.0072  85.4 23.2  21d  94
2026 08 27 17  16 40 27.384   +48 23 47.04  .06790 1.0069  85.3 23.2  21d  94
2026 08 27 18  16 39 28.676   +48 25 58.39  .06842 1.0067  85.1 23.3  21d  94
2026 08 27 19  16 38 30.772   +48 28 05.92  .06895 1.0065  84.9 23.3  21d  94
2026 08 27 20  16 37 33.658   +48 30 09.76  .06947 1.0062  84.7 23.3  21d  94
2026 08 27 21  16 36 37.320   +48 32 10.02  .06999 1.0060  84.6 23.3  22d  94
2026 08 27 22  16 35 41.744   +48 34 06.82  .07052 1.0058  84.4 23.4  22d  94
2026 08 27 23  16 34 46.916   +48 36 00.27  .07104 1.0055  84.2 23.4  22d  95
2026 08 28 00  16 33 52.823   +48 37 50.46  .07157 1.0053  84.0 23.4  22d  95